{"data":{"norad_id":55305,"intl_designator":"2023-010AN","name":"STARLINK-5316","alt_names":[],"object_type":"PAYLOAD","status":"ACTIVE","operator":null,"country":"US","launch_date":"2023-01-19","launch_site_code":"AFWTR","launch_vehicle":null,"mission":null,"orbit_class":"UNKNOWN","rcs_meters":null,"size_class":null,"mass_kg":null,"dimensions":null,"purposes":["comms"],"wikipedia_slug":null,"has_3d_model":false,"image_url":null,"decayed_at":null,"tle_current":{"epoch":"2026-05-24T09:20:53.133504Z","epoch_age_seconds":134719,"freshness":"FRESH","line1":"1 55305U 23010AN  26144.38950386  .00001547  00000+0  13734-3 0  9990","line2":"2 55305  69.9995 193.7756 0004044 269.0028  91.0668 14.98345981184616","mean_motion":14.98345981,"eccentricity":0.0004044,"inclination_deg":69.9995,"raan_deg":193.7756,"arg_perigee_deg":269.0028,"mean_anomaly_deg":91.0668,"bstar":0.00013734,"rev_number":18461,"period_min":96.105974071418,"perigee_km":569.19583343959,"apogee_km":574.8171094793,"semimajor_km":6950.1434714594,"source":"CELESTRAK","updated_at":"2026-05-25T13:38:17.755525Z"}}}